sat.trackr.live / text

‹ back to catalog

STARLINK-34090

NORAD 63976 · 2025-099AA

PAYLOAD ACTIVE UNKNOWN

§ Identity

Operator
Country
US
Launch date
2025-05-13
Launch site
AFETR
Launch vehicle
Mass (kg)
RCS (m²)

Purposes: comms

External: N2YO · Heavens-Above · Gunter

§ Orbital elements

Epoch: 2026-05-25T04:19:13.321920Z

Period
94.27 min
Inclination
43.0023°
Eccentricity
0.0000525
Mean motion
15.27594067 rev/d
Perigee alt
482.6 km
Apogee alt
483.4 km
Semi-major
6,861.1 km
B*
5.1946e-4
RAAN
100.8447°
Arg perigee
261.2862°
Mean anomaly
98.7930°
Rev number
5,898

§ Raw data

STARLINK-340901 63976U 25099AA  26145.18001530  .00014066  00000+0  51946-3 0  99962 63976  43.0023 100.8447 0000525 261.2862  98.7930 15.27594067 58980

JSON: /api/v1/satellites/63976 · /tle

For live sub-satellite position, see the globe view (requires WebGL).

§ Visibility from observer

Set your observer location to see the next 7 days of passes ≥ 10°. The values pass through the URL so the page stays shareable.

No JS? Fill the form by hand. The geolocation button needs JavaScript.